The Dalles, WA

6:24 PM PST on December 10, 2019 (GMT -0800)
Columbia Gorge Regional-The Dalles

Weather History for KDLS - October, 2019

Change the Weather History Date:

Wednesday, October 30, 2019

  Actual Average Record
Temperature  
Mean Temperature 32 °F -  
Max Temperature 45 °F 57 °F 72 °F (1965)
Min Temperature 19 °F 39 °F 18 °F (2002)
Degree Days  
Heating Degree Days 33    
Moisture  
Dew Point 11 °F    
Average Humidity 47    
Maximum Humidity 68    
Minimum Humidity 25    
Precipitation  
Precipitation 0.00 in - - ()
Sea Level Pressure  
Sea Level Pressure 30.54 in    
Wind  
Wind Speed 5 mph (East)    
Max Wind Speed 16 mph    
Max Gust Speed -    
Visibility 10 miles    
Events      
Averages and records for this station are not official NWS values.
T = Trace of Precipitation, MM = Missing Value Source: NWS Daily Summary

Daily Weather History Graph

Daily Weather History Graph

Search for Another Location

Airport or City:

Astronomy

Oct. 30, 2019 Rise Set
Actual Time 7:41 AM PDT 5:54 PM PDT
Civil Twilight 7:10 AM PDT 6:25 PM PDT
Nautical Twilight 6:35 AM PDT 7:00 PM PDT
Astronomical Twilight 6:01 AM PDT 7:34 PM PDT
Moon 10:37 AM PDT (10/30) 7:59 PM PDT (10/30)
Length of Visible Light 11h 14m
Length of Day
10h 13m
Waxing Crescent, 9% of the Moon is Illuminated
Oct 30
Waxing Crescent
Nov 4
First Quarter
Nov 12
Full
Nov 19
Last Quarter
Nov 26
New

Hourly Weather History & Observations

Time (PDT) Temp. Windchill Dew Point Humidity Pressure Visibility Wind Dir Wind Speed Gust Speed Precip Events Conditions
12:53 AM 21.9 °F 14.5 °F 8.1 °F 55% 30.61 in 10.0 mi ESE 5.8 mph - N/A   Clear
1:53 AM 21.9 °F 15.7 °F 9.0 °F 58% 30.61 in 10.0 mi ESE 4.6 mph - N/A   Clear
2:53 AM 19.9 °F 12.1 °F 9.0 °F 62% 30.61 in 10.0 mi ESE 5.8 mph - N/A   Clear
3:53 AM 21.0 °F - 9.0 °F 60% 30.60 in 10.0 mi Calm Calm - N/A   Clear
4:53 AM 21.0 °F - 9.0 °F 60% 30.60 in 10.0 mi Calm Calm - N/A   Clear
5:53 AM 19.9 °F - 9.0 °F 62% 30.59 in 10.0 mi Calm Calm - N/A   Clear
6:53 AM 19.9 °F - 10.9 °F 68% 30.60 in 10.0 mi Calm Calm - N/A   Clear
7:53 AM 19.9 °F - 10.9 °F 68% 30.61 in 10.0 mi Calm Calm - N/A   Clear
8:53 AM 24.1 °F 19.7 °F 14.0 °F 65% 30.61 in 10.0 mi ENE 3.5 mph - N/A   Clear
9:53 AM 28.0 °F - 15.1 °F 58% 30.62 in 10.0 mi Calm Calm - N/A   Clear
10:53 AM 32.0 °F 27.5 °F 14.0 °F 48% 30.61 in 10.0 mi SE 4.6 mph - N/A   Clear
11:53 AM 37.9 °F - 15.1 °F 39% 30.58 in 10.0 mi Calm Calm - N/A   Clear
12:53 PM 42.1 °F 34.5 °F 10.0 °F 27% 30.53 in 10.0 mi ENE 15.0 mph - N/A   Clear
1:53 PM 44.1 °F 36.8 °F 10.9 °F 26% 30.51 in 10.0 mi ENE 16.1 mph - N/A   Clear
2:53 PM 45.0 °F 38.5 °F 12.0 °F 26% 30.49 in 10.0 mi ENE 13.8 mph - N/A   Clear
3:53 PM 45.0 °F 38.9 °F 10.9 °F 25% 30.47 in 10.0 mi ENE 12.7 mph - N/A   Clear
4:53 PM 44.1 °F 38.1 °F 12.0 °F 27% 30.46 in 10.0 mi ENE 11.5 mph - N/A   Clear
5:53 PM 41.0 °F 34.3 °F 9.0 °F 27% 30.46 in 10.0 mi East 11.5 mph - N/A   Clear
6:53 PM 37.9 °F 31.5 °F 9.0 °F 30% 30.46 in 10.0 mi East 9.2 mph - N/A   Clear
7:53 PM 34.0 °F - 10.9 °F 38% 30.47 in 10.0 mi Calm Calm - N/A   Clear
8:53 PM 30.9 °F 25.2 °F 14.0 °F 50% 30.47 in 10.0 mi SW 5.8 mph - N/A   Clear
9:53 PM 30.9 °F - 12.9 °F 47% 30.48 in 10.0 mi Calm Calm - N/A   Clear
10:53 PM 28.9 °F - 12.0 °F 49% 30.48 in 10.0 mi Calm Calm - N/A   Clear
11:53 PM 27.0 °F 23.0 °F 12.0 °F 53% 30.48 in 10.0 mi East 3.5 mph - N/A   Clear